Zurück zum Katalog

N-1 R/B

AktivLEO
NORAD 8710·ROCKET BODY·🇯🇵 Japan

Gestartet Feb 29, 1976 von Tanegashima Space Center

Loading…

Nächste Überflüge (nächste 24 Stunden)

TLE

AktuellSource: Space-Track

Epoche: Sep 14, 2026, 14:25 UTC

1 08710U 76019B   26257.60112744 -.00000047  00000-0  49642-5 0  9998
2 08710  69.6786  26.5149 0014823 225.5652 146.5737 13.69998990527327

Verfolge N-1 R/B in Echtzeit mit AllMySat

Download on the App Store